Weather History for Buffalo, SD

Change the Weather History Date:

Thursday, April 25, 2013

  Actual Average Record
Temperature  
Mean Temperature 49 °F 47 °F  
Max Temperature 67 °F 59 °F 81 °F (2012)
Min Temperature 30 °F 34 °F 19 °F (2002)
Degree Days  
Heating Degree Days 16 18  
Month to date heating degree days 765 564  
Since 1 July heating degree days 7161 7367  
Cooling Degree Days 0 0  
Month to date cooling degree days 0 0  
Year to date cooling degree days 0 0  
Moisture  
Dew Point 24 °F    
Average Humidity 47    
Maximum Humidity 78    
Minimum Humidity 16    
Precipitation  
Precipitation 0.00 in 0.06 in 0.16 in (1999)
Month to date precipitation 1.13 1.15  
Year to date precipitation 1.61 2.49  
Sea Level Pressure  
Sea Level Pressure 29.85 in    
Wind  
Wind Speed 13 mph (WSW)    
Max Wind Speed 37 mph    
Max Gust Speed 45 mph    
T = Trace of Precipitation, MM = Missing Value Source: NWS Daily Summary

Daily Weather History Graph

Daily Weather History Graph

Search for Another Location

Airport:

Trip Planner

Search our weather history database for the weather conditions in past years. The results will help you decide how hot, cold, wet, or windy it might be!

Date:

Astronomy

Apr. 25, 2013 Rise Set
Actual Time 5:51 AM MDT 7:53 PM MDT
Civil Twilight 5:18 AM MDT 8:26 PM MDT
Nautical Twilight 4:39 AM MDT 9:05 PM MDT
Astronomical Twilight 3:55 AM MDT 9:49 PM MDT
Moon 8:11 PM MDT (4/25) 5:35 AM MDT (4/25)
Length of Visible Light 15h 07m
Length of Day
14h 02m
Full, 100% of the Moon is Illuminated
Apr 25
Full
Apr 25
Full
May 2
Last Quarter
May 9
New
May 17
First Quarter

Hourly Weather History & Observations

Time (MDT) Temp. Windchill Dew Point Humidity Pressure Visibility Wind Dir Wind Speed Gust Speed Precip Events Conditions
12:56 AM 33.1 °F 25.5 °F 24.1 °F 70% 30.00 in - SE 9.2 mph - N/A   Unknown
1:56 AM 30.0 °F 21.1 °F 21.9 °F 72% 29.99 in - SE 10.4 mph - N/A   Unknown
2:56 AM 30.9 °F 23.5 °F 23.0 °F 72% 29.97 in - SSE 8.1 mph - N/A   Unknown
3:56 AM 30.9 °F 21.7 °F 23.0 °F 72% 29.94 in - SSE 11.5 mph - N/A   Unknown
4:56 AM 30.0 °F 22.4 °F 24.1 °F 79% 29.93 in - South 8.1 mph - N/A   Unknown
5:56 AM 30.0 °F 21.1 °F 24.1 °F 79% 29.90 in - SSE 10.4 mph - N/A   Unknown
6:56 AM 30.9 °F 24.3 °F 25.0 °F 79% 29.90 in - SSE 6.9 mph - N/A   Unknown
7:56 AM 37.9 °F 30.0 °F 27.0 °F 65% 29.86 in - South 12.7 mph - N/A   Unknown
8:56 AM 48.9 °F - 27.0 °F 43% 29.83 in - South 11.5 mph - N/A   Unknown
9:56 AM 55.0 °F - 24.1 °F 30% 29.82 in - WSW 16.1 mph - N/A   Unknown
10:56 AM 55.9 °F - 28.0 °F 34% 29.82 in - West 13.8 mph - N/A   Unknown
11:56 AM 62.1 °F - 24.1 °F 23% 29.78 in - West 18.4 mph - N/A   Unknown
12:56 PM 63.0 °F - 19.0 °F 18% 29.78 in - West 20.7 mph 39.1 mph N/A   Unknown
1:56 PM 66.0 °F - 19.0 °F 17% 29.76 in - WNW 21.9 mph 31.1 mph N/A   Unknown
2:56 PM 64.9 °F - 19.9 °F 18% 29.77 in - WNW 27.6 mph 33.4 mph N/A   Unknown
3:56 PM 64.0 °F - 21.0 °F 19% 29.76 in - NW 23.0 mph 28.8 mph N/A   Unknown
4:56 PM 64.0 °F - 21.0 °F 19% 29.78 in - WNW 16.1 mph 24.2 mph N/A   Unknown
5:56 PM 64.0 °F - 19.9 °F 18% 29.78 in - NW 18.4 mph - N/A   Unknown
6:56 PM 59.0 °F - 23.0 °F 25% 29.80 in - NW 12.7 mph - N/A   Unknown
7:56 PM 55.9 °F - 25.0 °F 30% 29.81 in - NNW 13.8 mph - N/A   Unknown
8:56 PM 51.1 °F - 26.1 °F 38% 29.83 in - North 12.7 mph - N/A   Unknown
9:56 PM 46.0 °F 44.8 °F 27.0 °F 47% 29.86 in - West 3.5 mph - N/A   Unknown
10:56 PM 44.1 °F 40.8 °F 28.0 °F 53% 29.88 in - West 5.8 mph - N/A   Unknown
11:56 PM 44.1 °F 40.8 °F 28.0 °F 53% 29.88 in - WNW 5.8 mph - N/A   Unknown